Location: Pallagorio
(39.3000°N, 16.9000°E)
Time: 02:03:42
(UTC+00:00)

Cosmos 1892 Rocket - Pass Details

Date: 24 January 2021
Orbit: 607 x 632 km, 82.5° (Epoch: 08 March)

Event Time Altitude Azimuth Distance (km) Brightness Sun altitude
Rises 16:23:06 0° 186° (S) 2,858 7.4 -4.3°
Reaches altitude 10° 16:25:19 10° 187° (S) 1,955 6.5 -4.7°
Maximum altitude 16:29:38 88° 270° (W) 614 3.6 -5.5°
Drops below altitude 10° 16:34:00 10° 7° (N) 1,965 5.9 -6.3°
Sets 16:36:13 0° 8° (N) 2,873 6.7 -6.7°
